Vorticity
nan nan nan nan nan nan nan nan nan nan nan nan nan nan nan nan nan nan nan nan nan nan nan nan nan nan nan nan nan nan nan nan nan nan nan nan nan nan nan nan nan nan nan nan
nan 11 6 10 13 8 5 5 7 8 8 5 6 4 16 12 9 8 7 7 6 5 4 5 7 8 8 7 7 7 7 9 12 9 10 10 9 8 6 6 5 5 8 nan
nan 8 19 12 4 7 5 8 9 6 9 11 14 18 9 6 4 3 5 5 6 6 6 6 6 7 7 7 8 9 8 8 8 11 13 12 11 7 7 7 6 5 7 nan
nan 8 12 8 6 7 7 13 11 10 7 10 7 21 17 6 -1 1 2 4 6 8 8 7 6 5 6 7 8 7 6 8 9 10 10 10 11 9 8 8 7 8 7 nan
nan 15 9 7 13 5 12 11 10 9 7 10 6 7 14 14 3 5 4 5 6 6 5 6 7 7 7 8 8 7 7 9 8 10 11 10 9 10 8 8 6 9 8 nan
nan 9 13 11 16 12 8 7 7 6 11 13 19 8 3 13 13 8 5 7 7 5 5 5 7 8 7 8 9 8 8 7 8 9 9 9 12 12 9 10 10 7 9 nan
nan 4 5 9 2 11 4 0 5 10 7 7 16 10 14 13 12 9 10 9 6 6 6 6 6 6 6 7 9 9 8 8 9 9 8 7 10 9 10 10 10 8 9 nan
nan 15 13 6 2 8 13 1 0 3 4 9 5 6 14 14 11 8 12 11 6 6 4 4 5 7 8 7 8 8 9 8 9 9 9 9 11 11 9 8 10 10 9 nan
nan 9 11 12 20 9 6 13 9 9 8 7 6 10 6 6 7 9 8 6 5 5 4 4 6 7 7 9 8 8 9 9 8 10 9 9 9 11 10 10 12 10 9 nan
nan 10 11 10 9 8 7 9 10 13 12 9 6 7 15 13 7 8 7 6 7 4 5 4 6 8 9 10 8 9 9 9 9 10 11 9 9 10 10 10 10 11 10 nan
nan 9 8 5 8 5 4 -1 -2 5 9 10 10 9 20 16 15 12 8 9 7 5 7 7 6 7 9 9 9 9 9 9 10 10 9 10 9 10 11 10 9 10 10 nan
nan 9 11 3 5 10 8 5 2 2 5 1 10 13 8 15 19 17 13 11 8 7 6 7 6 8 8 9 9 10 9 9 10 10 9 9 10 10 9 10 10 10 9 nan
nan 8 11 7 11 18 16 10 9 4 6 6 4 8 4 13 14 15 13 10 8 7 7 7 7 7 8 9 9 9 9 9 10 10 9 9 9 8 9 9 9 9 9 nan
nan 8 7 4 0 8 11 12 13 8 6 9 1 0 5 7 10 10 12 9 8 6 6 7 7 7 8 9 9 9 9 9 9 9 9 9 8 9 10 10 10 10 10 nan
nan 7 8 6 2 3 5 5 6 8 2 -1 2 4 6 11 20 12 10 8 8 7 7 7 8 7 8 8 8 8 8 9 10 9 9 9 9 10 9 10 10 9 9 nan
nan 12 13 11 11 10 11 8 6 6 8 8 7 6 9 16 19 17 11 8 7 8 7 8 9 8 8 8 8 9 8 9 9 9 9 9 9 9 9 10 10 10 9 nan
nan 11 12 13 15 13 17 20 14 13 13 11 9 8 13 20 15 15 9 8 9 9 9 8 7 8 8 8 7 8 9 9 9 9 10 9 9 9 9 10 10 9 9 nan
nan 4 8 11 16 12 2 14 23 26 15 13 9 8 12 22 28 19 15 13 11 10 9 8 8 9 8 8 7 8 10 9 9 8 9 9 11 10 9 9 10 10 9 nan
nan 2 7 11 5 3 10 10 18 19 11 16 14 13 17 18 14 16 21 16 13 12 8 10 11 9 9 9 9 8 8 10 9 8 8 9 10 9 9 9 10 10 10 nan
nan 14 4 7 8 9 12 17 17 6 19 22 15 20 18 3 1 18 17 11 10 11 11 10 9 11 10 10 10 9 8 9 7 9 10 9 8 10 9 10 10 11 11 nan
nan 19 16 10 10 11 19 24 8 5 12 19 23 23 12 -2 15 27 12 10 11 11 11 8 7 9 9 10 10 10 9 9 9 8 8 9 10 9 9 10 9 10 10 nan
nan 7 16 14 14 19 15 9 4 6 14 15 19 17 10 14 18 9 12 11 10 11 9 7 7 9 10 9 8 8 9 8 9 9 8 8 10 9 9 9 9 9 9 nan
nan 11 9 12 9 24 7 -0 14 10 13 15 15 15 14 12 9 9 9 9 9 8 7 8 9 8 9 10 9 10 10 9 8 7 7 7 9 10 9 8 10 10 9 nan
nan 14 7 11 15 10 6 4 7 11 15 17 15 14 11 12 11 9 8 9 9 10 10 9 9 8 8 9 10 10 10 10 9 8 8 8 7 8 11 11 8 9 11 nan
nan 17 9 5 10 12 18 12 10 10 14 14 14 14 12 12 10 9 8 9 8 10 11 11 9 10 10 9 9 10 10 9 9 9 9 9 8 9 8 5 11 13 10 nan
nan nan nan nan nan nan nan nan nan nan nan nan nan nan nan nan nan nan nan nan nan nan nan nan nan nan nan nan nan nan nan nan nan nan nan nan nan nan nan nan nan nan nan nan
CAPE
0 0 0 0 0 0 0 0 0 0 0 0 0 0 0 0 0 0 0 0 0 0 0 0 0 0 0 0 0 0 0 0 0 0 0 0 0 0 0 0 0 0 3 7
0 0 0 0 0 0 0 0 0 0 0 0 0 0 0 0 0 0 0 0 1 0 0 0 0 0 0 0 0 0 0 0 0 0 0 0 0 0 0 0 1 4 5 7
0 0 0 0 0 0 0 0 0 0 0 0 0 0 0 4 0 0 1 1 1 0 0 0 0 0 0 0 0 0 0 0 0 0 0 0 0 0 0 0 0 2 7 11
0 0 0 0 0 0 0 0 0 0 0 0 0 0 0 2 0 0 0 0 2 2 0 0 1 2 2 1 1 1 0 0 0 2 0 1 0 0 0 0 0 1 5 6
0 0 0 0 0 0 0 0 0 0 0 0 0 0 0 0 0 0 0 0 2 6 6 5 6 5 7 3 2 4 5 3 4 6 4 2 1 1 1 1 1 0 2 6
0 0 0 0 0 0 0 0 0 0 0 0 0 0 0 0 0 0 0 0 4 4 2 5 5 4 5 7 8 5 5 4 7 4 6 11 9 6 4 3 2 0 3 6
0 0 0 0 0 0 0 0 0 0 3 0 0 0 0 0 0 0 0 1 5 7 4 3 3 4 8 8 8 6 6 4 6 5 4 6 5 4 3 3 3 4 3 6
0 0 0 0 0 0 0 0 0 0 0 0 0 0 0 0 0 0 0 3 8 7 4 4 4 5 4 3 6 8 5 5 6 7 7 9 8 10 10 10 7 8 6 8
0 0 0 0 0 0 2 1 0 8 8 23 0 0 0 0 1 2 0 7 3 6 4 3 4 5 5 6 5 4 7 6 7 9 7 9 10 12 10 9 11 11 8 6
0 0 0 0 0 0 0 9 12 56 20 35 4 1 11 0 5 5 6 4 2 8 5 3 2 3 5 5 5 8 3 8 5 9 10 9 9 8 12 12 11 8 8 8
0 0 13 6 12 19 12 59 52 72 68 53 27 24 26 60 0 1 6 5 7 6 6 3 0 0 4 6 6 4 9 9 13 11 9 10 12 10 9 12 11 11 13 10
22 46 39 25 35 60 90 73 88 124 71 93 86 14 0 0 2 0 0 4 5 5 1 0 0 0 3 4 5 6 9 9 9 9 9 10 7 9 11 11 9 8 10 10
101 99 84 65 61 65 69 66 78 84 80 54 74 34 0 0 0 0 0 5 4 3 0 0 0 1 3 4 4 6 8 7 5 5 5 5 5 6 6 8 9 9 10 8
73 51 55 55 20 53 81 40 65 84 135 66 54 59 24 55 0 0 2 8 0 0 0 0 0 2 4 4 4 4 6 6 3 1 2 3 3 2 1 3 4 6 6 4
41 21 12 14 31 44 59 43 41 64 80 104 17 60 0 86 16 0 4 5 0 0 0 0 0 4 4 4 4 5 5 3 3 1 1 0 0 0 1 1 3 4 5 3
97 14 10 1 6 17 33 12 8 33 36 67 67 10 31 43 60 5 5 2 0 0 0 0 1 4 3 3 4 5 3 0 0 0 0 0 0 0 1 2 3 3 5 6
70 55 58 16 10 57 80 0 0 1 45 74 97 28 47 56 72 5 8 1 0 1 1 1 3 5 7 3 5 6 3 0 0 0 0 0 2 3 6 4 5 8 9 9
55 58 85 47 44 94 8 0 0 15 33 55 69 46 38 56 127 65 4 5 4 1 1 5 8 5 3 3 7 4 1 0 1 0 0 1 2 4 5 5 7 10 16 14
47 73 56 82 43 21 18 1 4 31 0 10 66 76 33 0 0 0 0 3 3 1 5 12 9 5 3 5 3 5 1 0 0 2 3 3 3 4 5 6 7 12 12 12
8 45 160 46 63 46 37 2 0 0 5 0 12 4 0 4 6 2 5 6 12 11 11 8 9 6 2 4 7 7 5 2 5 4 3 0 2 4 4 10 10 13 15 16
30 52 18 65 57 38 0 0 0 32 37 0 0 0 3 9 2 4 13 15 12 10 9 7 8 6 5 7 8 7 6 8 7 8 3 3 2 5 8 11 13 12 12 11
65 67 69 69 53 60 0 0 0 60 0 0 0 2 10 3 5 11 14 12 13 14 5 7 7 7 6 4 3 5 6 9 10 6 5 4 6 7 10 8 13 12 11 9
82 192 183 98 121 0 0 1 0 0 0 0 2 6 5 3 5 11 14 6 12 8 5 8 8 6 3 1 0 1 6 7 7 5 3 4 4 7 5 8 7 10 11 11
62 16 75 0 9 0 0 0 0 0 0 0 2 4 5 3 7 8 10 5 5 6 9 7 6 4 3 0 0 0 0 0 0 0 0 0 0 1 1 0 1 4 8 11
43 1 6 3 0 0 0 0 0 0 0 0 1 3 5 4 6 7 9 6 5 8 7 5 4 3 1 0 0 0 0 0 0 0 0 0 0 0 1 3 4 5 12 8
4 31 54 127 8 4 8 0 0 0 0 1 1 3 4 4 6 7 7 10 9 8 5 3 2 0 0 0 0 0 0 0 0 0 0 0 0 0 0 0 3 0 2 1